DW7214 Weather Reports


Display with metric or nautical units.
time (UTC)temp
F
wind
direction
speed
MPH
gust
MPH
rain 1hr
in
rain 24hr
in
rain mn
in
humidity
%
barometer
mb
20260510060018 56 132 0.0 2.0 0.00 0.00 0.00 79 1016.5
20260510054514 57 120 0.0 2.0 0.00 0.00 0.00 78 1016.5
20260510053018 58 120 0.0 2.0 0.00 0.00 0.00 74 1016.5
20260510051527 59 120 0.0 2.0 0.00 0.00 0.00 77 1016.5
20260510050024 58 109 0.0 2.0 0.00 0.00 0.00 77 1016.3
20260510044515 59 236 0.0 2.0 0.00 0.00 0.00 73 1016.3
20260510043020 60 246 0.0 2.0 0.00 0.00 0.00 71 1016.3
20260510041524 61 50 0.0 2.0 0.00 0.00 0.00 69 1016.2
20260510040005 62 169 0.0 2.0 0.00 0.00 0.00 66 1015.9
20260510034509 64 214 0.0 2.0 0.00 0.00 0.00 65 1015.4
20260510033017 66 214 0.0 2.0 0.00 0.00 0.00 61 1015.3
20260510031520 68 214 0.0 2.0 0.00 0.00 0.00 59 1015.2
20260510030008 71 198 0.0 2.0 0.00 0.00 0.00 51 1015.2
20260510024507 73 146 0.0 2.0 0.00 0.00 0.00 48 1015.1
20260510023012 75 146 0.0 2.0 0.00 0.00 0.00 43 1015.0
20260510021531 76 144 0.0 2.0 0.00 0.00 0.00 43 1015.1
20260510020022 77 219 0.0 2.0 0.00 0.00 0.00 45 1015.1
20260510014507 78 225 0.0 2.0 0.00 0.00 0.00 39 1015.1
20260510013009 79 283 0.0 2.0 0.00 0.00 0.00 32 1015.3
20260510011516 78 289 1.0 3.0 0.00 0.00 0.00 30 1015.5
20260510010021 79 281 1.0 2.0 0.00 0.00 0.00 26 1015.5
20260510004522 78 242 0.0 2.0 0.00 0.00 0.00 27 1015.6
20260510003010 77 15 0.0 5.0 0.00 0.00 0.00 30 1015.5
20260510001513 78 246 2.0 3.0 0.00 0.00 0.00 30 1015.8
20260510000020 78 342 2.0 4.0 0.00 0.00 0.00 29 1015.9
20260509234529 78 9 0.0 4.0 0.00 0.00 0.00 31 1016.0
20260509233006 78 61 1.0 5.0 0.00 0.00 0.00 29 1015.9
20260509231512 78 5 3.0 5.0 0.00 0.00 0.00 33 1016.1
20260509230016 77 264 2.0 7.0 0.00 0.00 0.00 33 1016.2
20260509224522 77 9 2.0 6.0 0.00 0.00 0.00 35 1016.5
20260509223028 76 246 2.0 7.0 0.00 0.00 0.00 36 1016.7
20260509221512 76 360 3.0 8.0 0.00 0.00 0.00 36 1017.0
20260509220017 76 317 2.0 6.0 0.00 0.00 0.00 38 1017.4
20260509214519 75 291 1.0 6.0 0.00 0.00 0.00 41 1017.7
20260509213024 74 311 2.0 6.0 0.00 0.00 0.00 42 1017.9
20260509211527 73 317 1.0 8.0 0.00 0.00 0.00 47 1018.0
20260509210012 72 257 1.0 5.0 0.00 0.00 0.00 48 1018.2
20260509204519 71 360 1.0 8.0 0.00 0.00 0.00 50 1018.4
20260509203024 71 9 2.0 8.0 0.00 0.00 0.00 48 1018.5
20260509201523 70 5 3.0 6.0 0.00 0.00 0.00 50 1018.7
20260509200010 70 282 2.0 6.0 0.00 0.00 0.00 51 1019.1
20260509194517 69 348 5.0 10.0 0.00 0.00 0.00 51 1019.3
20260509193024 68 352 4.0 9.0 0.00 0.00 0.00 55 1019.4
20260509191526 69 296 4.0 8.0 0.00 0.00 0.00 55 1019.7
20260509190026 68 287 2.0 9.0 0.00 0.00 0.00 58 1020.0
20260509184522 67 304 3.0 9.0 0.00 0.00 0.00 60 1020.1
20260509183020 66 325 6.0 9.0 0.00 0.00 0.00 61 1020.3
20260509181525 65 346 4.0 8.0 0.00 0.00 0.00 64 1020.2
20260509180027 64 254 3.0 7.0 0.00 0.00 0.00 65 1020.4
20260509174526 63 315 3.0 7.0 0.00 0.00 0.00 67 1020.5
20260509173020 62 298 4.0 8.0 0.00 0.00 0.00 69 1020.6
20260509171534 62 287 3.0 6.0 0.00 0.00 0.00 70 1020.7
20260509170029 61 315 3.0 8.0 0.00 0.00 0.00 70 1020.7
20260509164525 60 289 3.0 8.0 0.00 0.00 0.00 72 1020.8
20260509163017 60 276 1.0 6.0 0.00 0.00 0.00 74 1021.0
20260509161520 59 290 3.0 9.0 0.00 0.00 0.00 75 1021.3
20260509160026 58 305 4.0 7.0 0.00 0.00 0.00 76 1021.6
20260509154516 57 279 3.0 8.0 0.00 0.00 0.00 79 1021.7
20260509153014 55 343 1.0 3.0 0.00 0.00 0.00 85 1021.7
20260509151518 53 335 0.0 2.0 0.00 0.00 0.00 86 1021.8
20260509150032 52 304 0.0 2.0 0.00 0.00 0.00 87 1022.0
20260509144532 50 336 0.0 2.0 0.00 0.00 0.00 89 1021.9
20260509143014 49 342 0.0 1.0 0.00 0.00 0.00 90 1021.9
20260509141521 48 306 0.0 2.0 0.00 0.00 0.00 93 1021.9
20260509140022 46 290 1.0 2.0 0.00 0.00 0.00 95 1021.9
20260509134524 45 240 1.0 2.0 0.00 0.00 0.00 94 1021.7
20260509133026 44 247 0.0 2.0 0.00 0.00 0.00 94 1021.5
20260509131525 43 232 1.0 2.0 0.00 0.00 0.00 94 1021.7
20260509130021 42 225 0.0 2.0 0.00 0.00 0.00 93 1021.7
20260509124526 42 224 0.0 1.0 0.00 0.00 0.00 93 1021.8
20260509123026 43 224 0.0 0.0 0.00 0.00 0.00 92 1021.7
20260509121529 43 224 0.0 0.0 0.00 0.00 0.00 92 1021.8
20260509120020 44 224 0.0 2.0 0.00 0.00 0.00 92 1022.0
20260509114527 44 215 0.0 2.0 0.00 0.00 0.00 92 1022.0
20260509113025 44 215 0.0 2.0 0.00 0.00 0.00 92 1022.0
20260509111528 45 33 0.0 2.0 0.00 0.00 0.00 91 1022.0
20260509110029 45 16 0.0 2.0 0.00 0.00 0.00 91 1022.1
20260509104523 46 26 0.0 2.0 0.00 0.00 0.00 91 1022.3
20260509103008 46 235 0.0 2.0 0.00 0.00 0.00 90 1022.4
20260509101507 47 235 0.0 2.0 0.00 0.00 0.00 89 1022.5
20260509100022 48 235 0.0 2.0 0.00 0.00 0.00 90 1022.4
20260509094523 48 253 1.0 3.0 0.00 0.00 0.00 90 1022.5
20260509093024 48 244 1.0 2.0 0.00 0.00 0.00 90 1022.5
20260509091515 48 244 1.0 3.0 0.00 0.00 0.00 91 1022.6
20260509090014 48 280 0.0 2.0 0.00 0.00 0.00 90 1022.7
20260509084518 48 265 0.0 2.0 0.00 0.00 0.00 89 1022.7
20260509083023 49 252 0.0 2.0 0.00 0.00 0.00 88 1022.9
20260509081506 49 275 0.0 2.0 0.00 0.00 0.00 88 1023.0
20260509080011 49 263 0.0 2.0 0.00 0.00 0.00 88 1023.0
20260509074516 50 243 1.0 2.0 0.00 0.00 0.00 88 1023.1
20260509073022 51 240 0.0 2.0 0.00 0.00 0.00 87 1023.1
20260509071524 51 290 0.0 3.0 0.00 0.00 0.00 86 1023.1
20260509070010 51 232 1.0 3.0 0.00 0.00 0.00 87 1023.1
20260509064515 51 259 0.0 2.0 0.00 0.00 0.00 87 1023.0
20260509063019 51 254 0.0 2.0 0.00 0.00 0.00 86 1023.1
20260509061525 52 254 0.0 2.0 0.00 0.00 0.00 85 1023.1